{"data":{"norad_id":68271,"intl_designator":"2026-055K","name":"STARLINK-37029","alt_names":[],"object_type":"PAYLOAD","status":"ACTIVE","operator":null,"country":"US","launch_date":"2026-03-19","launch_site_code":"AFETR","launch_vehicle":null,"mission":null,"orbit_class":"UNKNOWN","rcs_meters":null,"size_class":null,"mass_kg":null,"dimensions":null,"purposes":["comms"],"wikipedia_slug":null,"has_3d_model":false,"image_url":null,"decayed_at":null,"tle_current":{"epoch":"2026-09-20T01:04:33.071808Z","epoch_age_seconds":91152,"freshness":"FRESH","line1":"1 68271U 26055K   26263.04482722  .00025046  00000+0  74975-3 0  9991","line2":"2 68271  53.1578 131.8225 0000976  74.9658 285.1453 15.34407371 29754","mean_motion":15.34407371,"eccentricity":9.76e-5,"inclination_deg":53.1578,"raan_deg":131.8225,"arg_perigee_deg":74.9658,"mean_anomaly_deg":285.1453,"bstar":0.00074975,"rev_number":2975,"period_min":93.847307254626,"perigee_km":462.01366826022,"apogee_km":463.34899599865,"semimajor_km":6840.8183321294,"source":"CELESTRAK","updated_at":"2026-09-20T09:00:43.847652Z"}}}